GFSNW_prec_cloud_291.txt.gz
Cloud_Cover
100 100 100 100 100 100 100 100 100 100 100 100 100 100 100 100 100 100 100 100 100 100 100 100 100 100 88 5 5 5 4 5 5 2 5 0 0 0 0 5 5 5 5 5
100 100 100 100 100 100 100 100 95 100 100 100 100 100 100 100 100 100 100 100 100 100 100 100 100 100 100 36 5 24 22 1 5 5 5 5 10 34 90 10 2 5 4 5
100 100 100 100 100 100 98 100 74 44 100 100 100 100 100 100 100 100 100 100 81 100 100 100 100 100 90 5 5 100 100 7 5 5 5 5 5 32 37 2 2 5 4 16
100 100 100 100 100 100 100 100 100 100 100 100 100 100 100 100 100 100 100 91 45 100 100 100 100 100 91 21 16 100 100 63 10 5 8 5 5 5 40 0 0 5 5 77
100 100 100 100 100 100 100 100 100 100 100 100 100 100 100 100 100 100 91 80 99 100 100 100 100 100 68 65 47 100 100 100 7 5 5 5 5 5 5 1 0 5 72 67
100 100 100 100 100 100 100 100 100 100 100 100 100 100 100 100 100 100 100 99 95 100 100 100 100 100 62 35 41 90 100 18 5 8 100 5 5 5 1 0 5 5 98 93
100 100 100 100 100 100 100 100 100 100 100 100 100 100 100 100 100 100 86 84 100 100 100 100 100 82 17 32 56 85 77 5 6 100 28 5 5 5 5 4 0 3 95 86
100 100 100 100 100 100 100 100 100 100 100 100 73 99 100 100 100 100 100 100 100 100 100 100 100 100 100 70 62 68 45 68 100 100 5 5 5 10 5 5 4 6 10 11
100 100 100 100 100 100 100 100 100 100 100 74 100 100 98 100 100 100 100 100 100 100 100 100 100 100 100 100 47 5 19 100 100 5 5 5 14 17 34 3 7 80 7 5
100 100 100 100 100 100 100 100 100 100 100 100 100 100 100 100 100 100 100 100 100 100 100 100 100 100 100 100 85 44 50 100 100 22 70 89 97 1 5 12 97 24 31 96
100 100 100 100 100 100 100 100 100 100 100 100 100 100 100 100 100 100 100 100 100 100 100 98 99 100 100 100 100 100 100 100 100 87 73 100 20 2 5 69 22 5 22 41
100 100 100 100 100 100 100 100 100 100 100 100 100 100 100 100 100 100 100 100 100 100 99 100 100 100 100 100 100 100 100 100 100 100 100 18 5 5 5 87 100 12 18 100
100 100 100 100 100 100 100 100 100 100 100 100 100 100 100 100 100 100 100 100 100 100 100 100 100 100 100 100 100 100 100 100 100 100 100 41 80 18 5 97 100 74 100 100
100 100 100 100 100 100 100 100 100 100 100 100 100 100 100 100 100 100 100 100 100 100 100 100 100 100 100 100 100 95 22 100 98 72 91 67 10 5 5 78 19 20 100 100
100 100 100 100 100 100 100 100 100 100 100 100 100 100 100 100 100 100 100 100 100 100 100 100 100 100 100 100 100 13 92 100 55 5 5 8 55 91 100 100 100 100 100 100
100 100 100 100 100 100 100 100 100 100 100 100 100 100 100 100 100 100 100 100 100 100 100 100 100 100 100 98 90 23 100 100 9 39 7 5 40 57 45 42 99 100 100 100
100 100 100 100 100 100 100 100 100 100 100 100 100 100 100 100 100 100 100 100 100 100 100 100 100 100 100 96 88 40 100 100 99 40 19 5 25 29 32 26 99 99 100 71
100 100 100 100 100 100 100 100 100 100 100 100 100 100 100 100 100 100 100 100 100 100 100 100 100 100 100 51 24 23 76 34 17 87 100 93 80 85 88 100 67 77 100 100
100 100 100 100 100 100 100 100 100 100 100 100 100 100 100 100 100 100 100 100 100 100 100 100 100 100 82 100 100 92 97 38 5 5 58 100 100 100 100 100 100 100 100 100
100 100 100 100 100 100 100 100 100 100 100 100 100 100 100 100 100 100 100 100 100 100 100 100 85 86 86 100 100 37 8 41 64 58 35 5 5 5 8 78 96 100 100 100
100 100 100 100 100 100 100 100 100 100 100 100 100 100 100 100 100 100 100 100 100 100 100 94 35 97 100 99 56 56 47 51 93 74 52 5 18 32 68 93 100 100 100 100
100 100 100 100 100 100 100 100 100 100 100 100 100 100 100 100 100 100 100 90 89 99 100 96 100 100 100 100 100 100 78 76 62 5 5 5 59 88 100 100 100 100 98 80
100 100 100 100 100 100 100 100 100 100 100 100 100 100 100 100 100 100 100 100 100 100 100 100 100 100 100 98 28 5 5 5 5 5 16 81 100 100 100 100 100 57 45 5
100 100 100 100 100 100 100 100 100 100 100 100 100 100 100 100 100 100 100 100 100 100 100 100 100 100 70 5 7 51 5 5 9 16 58 99 100 96 96 84 92 15 5 5
75 75 98 96 100 96 100 100 100 100 100 100 100 100 90 99 100 100 30 51 84 99 97 89 89 61 25 27 6 5 5 5 5 5 40 29 5 5 5 5 4 5 5 5
100 94 100 100 99 98 97 100 84 95 100 97 98 87 90 100 72 16 45 78 62 97 92 54 34 53 66 16 5 5 5 5 5 5 5 2 3 3 4 5 5 5 35 92
100 98 94 93 84 95 85 100 98 100 100 100 84 72 63 64 36 94 90 63 65 46 72 40 5 5 5 5 5 5 5 5 4 0 0 0 0 5 5 5 1 5 5 62

GFSNW_prec_cloud_297.txt.gz
Cloud_Cover
100 100 100 100 100 100 100 100 100 100 100 91 100 100 100 100 100 100 100 100 100 100 100 100 100 100 100 100 100 63 74 100 100 100 19 3 4 5 5 5 5 5 46 70
100 100 100 100 100 100 100 100 100 100 100 100 100 100 100 100 100 100 100 100 100 100 100 100 100 100 100 100 100 100 100 100 100 98 9 5 5 10 5 5 5 5 27 6
100 100 100 100 100 100 100 100 100 100 100 100 100 100 100 100 100 100 100 100 100 100 100 100 100 100 100 100 100 100 100 100 100 36 94 5 5 95 43 5 5 6 77 5
100 100 100 100 100 100 100 100 100 100 100 100 100 100 100 100 100 100 100 100 100 100 100 100 100 86 100 100 100 100 100 100 100 8 84 6 72 6 5 20 5 22 62 77
100 100 100 100 100 100 100 100 100 100 100 100 100 100 100 100 100 100 100 100 100 100 100 100 100 100 100 100 100 100 100 100 100 100 5 25 99 14 62 100 39 94 52 8
100 100 100 100 100 100 100 100 100 100 100 100 100 100 100 100 100 100 100 100 100 100 100 100 100 100 100 100 100 100 100 100 100 100 44 76 98 54 100 100 100 100 33 41
100 100 100 100 100 100 100 100 100 100 100 100 100 100 100 100 100 100 100 100 100 100 100 100 100 100 100 100 100 100 100 100 100 100 100 78 100 100 100 100 100 100 52 100
100 100 100 100 100 100 100 100 100 100 100 100 100 100 100 100 100 100 100 100 100 100 100 100 100 100 100 96 94 100 100 100 96 100 71 52 100 100 100 99 66 89 99 100
100 100 100 100 100 100 100 100 100 100 100 100 100 100 96 100 100 100 100 100 100 100 100 100 100 100 99 65 100 100 100 100 56 90 32 50 100 94 100 16 90 100 100 100
100 100 100 100 100 100 100 100 100 100 100 100 100 54 100 100 100 100 100 100 100 100 100 100 100 100 100 100 100 100 88 99 95 98 56 70 66 100 62 34 69 100 100 100
100 100 100 100 100 100 100 100 100 100 100 100 100 100 100 100 100 100 100 100 100 100 100 100 100 100 100 100 100 100 93 100 100 58 37 65 100 100 97 76 100 100 100 100
100 100 100 100 100 100 100 100 100 100 100 100 100 100 100 100 100 100 100 100 100 98 100 100 100 100 100 100 100 100 100 100 100 99 100 100 100 100 81 100 100 100 100 100
100 100 100 100 100 100 100 100 100 100 100 100 100 100 100 100 100 100 100 100 100 100 100 100 100 100 100 100 100 100 100 100 95 87 100 100 97 91 87 100 100 100 100 100
100 100 100 100 100 100 100 100 100 100 100 100 100 100 100 100 100 100 100 97 100 100 100 100 100 100 100 100 100 100 100 95 86 99 100 100 100 92 100 100 100 100 100 100
100 100 100 100 100 100 100 100 100 100 100 100 100 100 100 100 100 100 100 100 100 100 100 100 100 100 100 100 100 100 100 100 100 100 100 100 100 100 100 100 100 100 100 100
100 100 100 100 100 100 100 100 100 100 100 100 100 100 100 100 100 100 100 100 100 100 100 100 100 100 100 98 100 100 100 100 100 100 100 100 100 100 100 100 100 100 100 96
100 100 100 100 100 100 99 100 100 100 100 100 100 100 100 100 100 100 100 100 100 100 100 100 100 100 99 94 100 100 100 100 100 100 100 100 100 100 100 100 100 100 78 48
100 100 100 100 100 100 100 100 100 100 100 100 100 100 100 100 100 100 100 100 100 100 100 100 96 100 100 100 100 100 100 100 100 100 100 100 100 100 100 100 100 96 55 5
100 100 100 100 100 100 100 100 100 100 100 100 100 100 100 100 100 100 100 100 100 100 100 100 100 100 94 100 100 100 100 100 100 100 100 100 100 100 100 100 100 66 28 17
100 100 100 100 100 100 100 100 100 100 100 100 100 100 100 100 100 100 100 100 100 99 98 100 97 100 94 100 100 100 100 100 100 100 100 100 100 100 100 98 41 29 53 13
100 100 100 100 100 100 100 100 100 100 93 79 98 100 100 100 100 100 100 100 100 97 100 100 100 100 100 100 100 100 100 100 100 100 100 100 100 90 73 55 18 5 5 5
100 100 100 100 100 100 100 100 100 100 74 100 100 100 100 100 100 100 100 100 100 100 100 100 100 100 100 100 100 100 100 100 100 100 100 63 50 37 9 42 15 5 5 5
100 100 100 100 100 100 100 100 100 100 100 100 100 100 100 100 100 100 100 100 100 100 100 100 100 100 100 100 100 100 100 100 100 79 5 5 5 5 5 3 4 5 2 0
100 100 100 100 81 71 100 100 100 100 100 100 100 100 100 100 100 100 100 100 100 100 100 100 100 100 100 100 100 100 100 91 24 25 10 8 5 5 1 5 4 5 4 0
100 100 99 98 100 100 100 100 100 100 99 100 100 100 100 100 100 100 100 100 100 100 100 100 100 100 100 100 86 69 20 20 9 8 74 13 5 4 5 5 5 5 5 5
100 100 100 100 100 100 100 100 100 99 86 98 100 100 100 100 100 100 100 100 100 100 100 100 100 99 100 88 89 72 41 13 8 8 5 5 5 5 5 5 5 5 5 5
100 100 100 100 100 100 100 100 100 100 100 100 100 100 100 100 100 100 100 100 100 100 84 93 97 83 99 100 98 94 10 2 5 5 42 8 5 5 5 5 5 5 5 5

GFSNW_prec_cloud_300.txt.gz
Cloud_Cover
100 100 100 100 100 100 100 100 90 100 100 100 89 100 100 100 100 100 100 100 100 100 100 100 100 100 100 100 100 82 100 100 100 100 100 100 100 20 5 5 2 3 4 1
100 100 100 100 100 80 100 100 100 100 100 100 100 100 100 100 100 100 100 100 100 100 100 100 100 100 100 100 100 99 100 100 100 100 100 100 100 11 5 5 5 5 5 21
100 100 100 100 100 100 100 100 100 100 100 100 100 100 100 100 100 100 100 100 100 100 100 100 100 100 100 100 100 100 100 100 100 100 100 100 100 74 47 5 5 5 6 4
100 100 100 100 100 100 100 100 100 100 100 100 100 100 100 100 100 100 100 100 100 100 100 100 100 100 100 100 100 100 100 100 100 100 100 100 100 99 13 5 76 37 98 25
100 100 100 100 100 100 100 100 90 100 100 100 100 100 100 100 100 100 100 100 100 100 100 100 100 100 100 100 100 100 100 100 100 100 100 100 100 100 65 100 100 60 100 18
100 100 100 100 100 100 100 100 100 100 100 100 100 100 100 100 100 100 100 100 100 100 100 100 100 100 100 100 100 100 100 100 100 100 100 100 100 100 100 100 95 48 83 35
100 100 100 100 100 100 100 100 100 100 100 100 100 100 100 100 100 100 100 100 100 100 100 100 100 100 100 100 100 100 100 100 72 82 100 98 100 100 100 100 65 84 66 18
100 100 100 100 100 100 100 100 100 100 100 100 100 100 100 100 100 100 100 100 100 100 100 100 100 100 100 100 100 100 100 100 94 100 99 100 100 100 100 100 100 100 40 100
100 100 100 100 100 100 100 100 100 100 100 100 100 100 100 100 100 100 100 100 100 100 100 100 100 100 100 100 100 100 100 100 100 37 97 54 100 100 100 61 99 100 100 100
100 100 100 100 100 100 100 100 100 100 100 100 100 100 100 100 100 100 100 100 100 100 100 100 100 100 100 100 100 100 100 100 100 100 57 100 100 100 98 52 90 97 100 100
100 100 100 100 100 100 100 100 100 100 100 100 100 100 100 100 100 100 100 100 100 100 100 100 100 100 100 100 100 100 100 100 100 100 95 100 100 98 94 84 97 100 100 100
100 100 100 100 100 100 100 100 100 100 100 100 100 100 100 100 100 100 100 100 100 100 100 100 100 100 100 100 100 100 100 100 100 100 100 100 95 53 86 75 99 100 100 100
100 100 100 100 100 100 100 100 100 100 100 100 100 100 100 100 100 100 100 100 100 100 100 100 100 100 100 100 100 100 100 100 100 100 100 100 99 89 91 100 100 100 100 100
100 100 100 100 100 100 100 100 100 100 100 100 100 100 100 100 100 100 100 100 100 100 100 100 100 100 100 100 100 100 100 100 100 100 100 100 100 100 100 100 100 100 100 100
100 100 100 100 100 100 100 100 100 100 100 100 100 100 100 100 100 100 100 100 100 100 100 100 100 100 100 100 100 100 100 100 94 100 100 100 100 100 100 100 100 100 100 100
100 100 100 100 100 100 100 100 100 100 100 100 100 100 100 100 100 100 100 100 100 100 100 100 100 100 100 100 100 100 100 99 100 100 100 100 100 100 100 100 100 100 100 100
100 100 100 100 100 100 100 100 100 100 100 100 100 100 100 100 100 100 100 100 100 100 100 98 100 100 100 100 100 100 100 100 100 100 100 100 100 100 100 100 100 100 100 100
100 100 100 100 100 100 100 100 100 100 100 100 100 100 100 100 100 100 100 100 100 100 100 100 100 100 100 100 100 100 100 100 100 100 100 100 100 100 100 93 100 100 81 96
100 100 100 100 100 100 100 100 100 100 100 100 100 100 100 100 100 100 100 100 100 100 100 100 100 100 100 100 100 100 100 100 100 96 100 100 100 100 72 99 100 98 100 100
100 100 100 100 100 100 100 100 100 100 100 100 100 100 100 100 100 100 100 100 100 100 100 100 100 100 100 100 100 100 100 100 100 100 100 100 99 100 100 100 100 100 57 5
100 100 98 92 100 100 100 100 100 100 100 100 100 100 100 100 100 100 100 100 99 100 100 100 100 100 100 100 100 98 94 100 100 100 100 97 100 100 96 100 78 21 5 4
77 100 99 100 100 100 100 100 84 100 100 100 100 100 100 100 100 100 100 94 99 100 100 100 100 100 100 100 98 100 100 100 100 100 100 100 100 100 90 9 5 5 5 3
100 100 100 100 100 87 66 88 100 100 100 100 100 100 100 100 100 92 100 100 99 100 100 100 100 100 84 98 100 100 100 100 100 100 100 100 77 7 5 5 5 5 5 3
100 100 100 100 99 100 100 100 100 100 100 100 100 100 100 100 100 100 100 100 100 100 100 100 99 99 100 100 100 100 100 100 100 100 62 5 5 5 5 5 9 5 5 5
100 100 100 57 100 100 100 100 100 100 100 100 100 100 100 100 100 100 100 100 100 100 100 100 100 100 94 100 100 100 100 100 87 18 26 5 5 5 5 8 5 5 5 5
100 69 84 100 100 100 100 100 100 100 100 100 100 100 100 100 100 100 100 100 100 100 100 100 92 100 100 100 100 100 88 50 5 5 5 5 5 7 12 5 5 5 5 5
99 99 100 100 100 100 100 100 100 100 100 100 100 100 100 100 100 100 100 100 96 99 100 100 100 100 100 100 97 69 24 21 8 5 5 5 5 5 5 5 5 5 5 7

GFSNW_prec_cloud_306.txt.gz
Cloud_Cover
100 100 100 100 100 100 100 100 55 81 5 12 8 31 100 100 100 100 100 100 100 100 100 100 100 100 100 100 100 100 100 100 100 100 100 100 100 100 100 100 100 100 52 99
100 100 100 100 100 100 95 100 95 9 5 75 12 5 28 100 100 100 100 100 100 100 100 100 100 100 100 100 100 100 100 100 100 100 100 100 100 100 100 100 49 49 5 85
100 100 100 100 100 100 100 100 100 73 37 6 5 5 65 100 100 100 100 100 100 100 100 100 100 100 100 100 100 100 100 100 100 100 100 100 100 84 100 100 100 33 19 37
100 100 100 100 100 100 100 100 100 72 91 64 36 83 14 97 100 100 100 100 100 100 100 100 100 100 100 100 100 100 100 100 100 100 100 100 100 100 100 100 100 87 66 40
100 100 100 100 100 100 100 100 100 12 88 10 17 9 5 66 100 100 100 100 100 100 100 100 100 100 100 100 100 100 100 100 100 100 100 100 100 100 100 100 100 100 100 100
100 100 100 100 100 100 100 100 53 92 6 5 5 3 5 16 100 100 100 100 100 100 100 100 100 100 100 100 100 100 100 100 100 100 100 100 100 100 100 100 100 100 100 100
100 100 100 100 100 100 100 97 65 97 17 5 76 12 23 80 100 100 100 100 100 100 100 100 100 100 100 100 100 100 100 100 100 100 100 100 100 100 100 100 100 100 100 100
100 100 100 100 100 100 100 100 100 81 91 63 50 39 56 62 100 100 100 100 100 100 100 100 100 100 100 100 100 100 100 100 100 99 100 100 100 100 100 100 100 100 100 100
100 100 100 100 100 100 100 100 100 92 99 26 100 99 100 91 81 100 100 100 100 100 100 100 100 100 100 100 100 100 100 100 100 100 100 100 100 100 100 100 100 100 100 100
100 100 100 100 100 100 100 100 96 98 99 58 46 67 95 29 68 60 100 100 100 100 100 100 100 100 100 100 100 100 100 100 100 100 100 100 100 100 100 100 100 100 100 100
100 100 100 100 100 100 100 100 100 100 46 47 99 91 5 14 30 98 100 100 100 100 100 100 100 100 100 100 100 100 100 100 100 100 100 100 100 100 100 100 100 100 100 100
100 100 100 100 100 100 100 100 100 100 100 99 96 22 37 74 98 100 100 100 100 100 98 96 100 100 100 100 100 100 100 100 100 100 100 100 100 100 100 100 100 100 100 100
100 100 100 100 100 100 100 100 98 97 100 100 99 53 94 94 95 100 100 100 100 100 100 100 100 100 100 100 100 100 100 100 100 100 100 100 100 100 99 85 100 100 100 100
100 100 100 100 100 100 100 100 100 100 94 100 78 44 33 55 47 100 100 100 100 100 98 100 100 100 100 100 100 100 100 100 100 100 100 100 100 100 100 100 100 100 100 100
100 100 100 100 100 100 100 100 100 100 100 75 98 86 96 88 91 100 100 100 100 100 100 100 100 100 100 100 100 100 100 100 100 100 100 100 100 100 100 100 100 100 100 100
100 100 100 100 100 100 100 100 100 100 100 86 64 10 42 76 99 100 100 100 100 100 100 100 100 100 100 100 100 100 100 100 100 99 100 100 100 99 100 100 100 100 100 100
100 100 100 100 100 100 100 100 100 97 93 98 66 100 99 100 100 100 100 100 100 100 100 100 100 100 100 100 100 100 96 72 66 100 100 100 100 100 100 100 100 100 95 98
100 100 100 100 100 100 100 100 100 100 94 86 54 99 94 100 100 100 100 100 100 100 100 100 100 100 100 100 100 100 90 92 100 96 100 100 100 100 100 100 100 92 100 100
100 100 100 100 100 100 100 100 100 100 85 59 32 100 100 100 100 100 100 100 100 100 100 100 100 100 100 100 100 100 100 100 100 100 100 100 100 100 100 100 100 100 100 100
100 100 100 100 100 100 100 100 100 100 62 69 65 100 100 100 100 100 100 100 100 100 100 100 100 100 100 100 96 100 100 100 100 100 88 100 100 95 100 100 100 100 100 100
100 100 100 100 100 100 100 100 100 98 100 52 62 100 100 100 100 100 100 100 100 100 100 100 100 100 100 100 100 94 88 93 82 100 100 100 100 100 100 100 100 100 100 100
100 100 100 100 100 100 98 81 42 9 27 15 96 100 100 100 100 100 100 100 100 100 100 100 100 100 100 100 92 71 71 100 100 98 100 100 100 100 100 100 100 99 99 39
100 100 100 100 79 56 17 8 8 7 83 100 100 100 100 100 100 100 100 100 100 100 100 100 100 100 100 100 85 95 99 99 96 99 99 92 70 76 88 98 99 74 61 49
100 100 97 65 18 99 11 100 95 100 100 100 100 100 100 100 100 100 100 100 100 100 100 100 100 100 100 100 100 100 100 98 83 99 70 79 59 68 73 75 63 82 41 4
100 100 70 11 91 64 5 26 20 24 97 100 99 99 100 100 100 100 100 100 100 100 100 100 100 100 100 100 100 100 100 100 100 92 50 46 70 35 5 44 49 3 5 5
100 100 100 92 100 75 41 24 51 84 100 100 77 91 99 100 100 100 100 100 100 100 100 100 100 100 100 100 100 100 100 98 84 54 6 5 5 23 18 5 5 5 10 15
100 100 100 100 92 85 6 64 58 100 100 94 95 100 100 100 100 100 100 100 100 100 100 100 100 100 93 100 100 100 88 76 44 5 5 5 5 5 5 5 7 17 5 4

GFSNW_prec_cloud_309.txt.gz
Cloud_Cover
98 100 100 100 100 100 100 100 99 32 47 62 12 5 5 88 100 100 100 100 100 100 100 100 100 100 100 100 100 100 100 100 100 100 100 100 100 100 100 100 100 100 51 98
58 100 100 100 100 100 100 100 100 81 76 76 23 15 1 4 98 100 100 100 100 100 100 100 100 100 100 100 100 100 100 100 100 100 100 100 100 100 100 100 100 100 24 72
71 100 100 100 100 100 100 100 100 99 68 37 5 5 0 5 35 100 100 100 100 100 100 100 100 100 100 100 100 100 100 100 100 100 100 100 100 100 100 100 100 65 100 78
100 100 100 100 100 100 100 100 100 38 89 13 1 0 0 5 5 100 100 100 100 100 100 100 100 100 100 100 100 100 100 100 100 100 100 100 100 100 100 100 100 100 100 100
82 100 100 100 100 100 100 100 100 100 70 5 4 3 0 0 5 82 100 100 100 100 100 100 100 100 100 100 100 100 100 100 100 100 100 100 100 100 100 100 100 100 100 100
4 100 100 100 100 100 100 31 100 100 100 5 5 2 1 25 99 7 7 100 100 100 100 100 100 100 100 100 100 100 100 100 100 100 100 100 100 100 100 100 100 100 100 100
15 100 100 100 100 99 95 100 100 100 100 34 20 3 4 6 5 5 14 97 100 100 100 100 100 100 100 97 100 100 100 100 100 100 100 100 100 100 100 100 100 100 100 100
20 100 100 100 100 100 100 100 100 100 100 92 89 5 8 5 5 49 5 18 20 100 100 100 100 100 100 100 100 100 100 100 100 100 100 100 100 100 100 100 100 100 100 100
8 100 100 100 100 100 100 100 100 100 100 99 99 5 5 5 5 5 5 80 53 38 100 100 100 100 100 100 100 100 100 100 100 100 100 100 100 100 100 100 100 100 100 100
24 100 100 100 100 100 100 100 100 100 100 100 55 5 14 16 5 36 48 71 54 59 100 100 100 92 100 100 100 100 100 100 100 100 100 100 100 100 100 100 100 100 100 100
98 100 100 100 100 100 100 100 100 100 99 99 44 48 5 44 96 76 11 84 78 98 100 100 100 99 100 100 100 100 100 100 100 100 100 100 100 100 100 100 100 100 100 100
100 100 100 100 100 100 100 100 100 100 100 99 37 5 6 40 97 84 5 74 98 100 100 100 100 95 98 100 100 100 100 100 100 100 100 100 100 100 100 100 100 100 100 100
100 100 100 100 100 100 100 100 100 100 100 100 51 38 44 27 5 5 39 35 49 62 98 100 100 100 100 100 100 100 100 100 100 100 100 100 100 100 100 100 100 100 100 100
100 100 100 100 100 100 100 100 100 100 100 100 35 77 95 6 16 9 27 60 100 77 97 100 100 100 100 100 100 100 100 100 100 100 100 100 100 100 100 100 100 100 100 100
100 100 100 100 100 100 100 100 100 100 100 93 100 63 39 6 19 74 80 96 94 75 66 84 100 100 100 100 100 100 100 100 100 100 100 100 100 100 100 100 100 100 100 100
98 100 100 100 100 100 100 100 100 100 100 100 100 80 65 5 42 100 100 97 99 100 100 100 100 100 100 100 100 100 100 100 100 100 100 100 100 100 100 100 100 100 100 100
100 100 100 100 100 100 100 100 100 100 100 100 100 52 54 59 12 5 31 71 92 100 100 100 100 100 100 100 100 100 100 100 100 100 100 100 100 100 100 100 100 99 99 97
100 100 100 100 100 100 100 100 100 100 100 100 98 90 10 18 10 16 5 12 61 100 100 100 100 100 100 100 100 100 100 100 100 100 100 100 100 100 100 100 100 96 98 100
100 100 100 100 100 100 100 100 100 100 100 100 38 22 92 4 43 5 59 86 99 100 100 100 100 100 100 100 100 100 100 100 100 100 100 100 100 75 99 91 85 100 100 100
100 100 100 100 100 100 100 100 100 100 100 72 14 12 12 5 5 5 24 80 100 100 100 100 100 100 100 100 100 100 100 100 100 100 70 95 82 100 82 96 100 100 100 100
100 100 100 100 100 100 100 100 100 100 67 47 12 7 53 6 6 100 100 97 100 100 100 100 100 100 100 100 100 100 100 100 100 100 99 100 93 96 100 100 100 100 95 35
100 100 100 100 100 100 100 100 100 85 65 8 5 11 5 5 10 54 100 66 100 100 100 100 100 100 100 100 100 100 100 100 100 100 100 99 100 100 100 100 58 13 6 32
100 100 100 100 100 100 100 98 63 74 38 37 9 10 5 42 75 100 100 84 100 100 100 100 100 100 100 100 100 100 100 100 100 100 100 100 100 93 13 5 16 60 57 6
100 100 100 100 100 100 70 91 71 78 100 97 5 5 5 66 100 100 99 100 100 100 100 100 100 100 100 100 100 100 100 100 100 100 100 95 5 5 17 33 11 5 1 0
100 100 100 100 100 100 100 100 100 100 69 5 6 9 24 32 96 100 100 100 100 100 100 100 100 100 100 100 100 100 100 100 100 98 64 58 54 32 7 5 2 2 5 5
100 100 100 100 100 100 100 100 96 21 5 5 10 29 92 100 100 100 100 100 100 100 100 100 100 100 100 100 100 100 100 100 100 67 65 54 6 17 6 5 5 5 10 7
100 100 100 100 100 100 100 100 55 5 5 5 6 91 100 100 100 100 100 100 100 100 100 100 100 100 100 100 100 100 99 98 75 59 6 5 5 5 5 8 12 5 6 9

GFSNW_prec_cloud_312.txt.gz
Cloud_Cover
0 40 100 100 100 100 100 100 100 100 100 27 6 5 0 5 5 62 100 100 100 100 100 100 100 100 100 100 100 100 100 100 100 100 100 100 100 100 100 100 100 100 100 100
0 9 100 100 100 100 100 100 100 100 100 32 5 5 0 3 2 5 85 100 100 100 100 100 100 100 100 100 100 100 100 100 100 100 100 100 100 100 100 100 100 100 100 100
2 26 100 100 100 100 100 100 100 100 100 85 5 3 5 5 5 5 6 100 100 100 100 100 100 100 100 100 100 100 100 100 100 100 100 100 100 100 100 100 100 100 100 100
5 9 100 100 100 100 100 100 100 100 100 96 14 5 5 52 18 8 5 22 100 100 100 100 100 100 100 100 100 100 100 100 100 100 100 100 100 100 100 100 100 100 100 100
3 2 100 100 100 100 100 100 96 88 100 100 100 65 5 5 5 3 2 6 74 99 100 100 100 100 100 100 100 100 100 100 100 100 100 100 100 100 100 100 100 100 100 100
0 0 100 100 100 100 100 100 100 100 90 96 100 39 3 2 27 5 5 25 14 8 95 100 100 100 100 100 100 100 100 100 100 100 100 100 100 100 100 100 100 100 100 100
0 0 100 100 100 100 100 100 100 100 100 78 92 13 5 5 8 73 10 47 8 6 76 100 100 100 100 100 100 100 100 100 100 100 100 100 100 100 100 100 100 100 100 100
3 0 81 100 100 100 100 100 100 100 100 65 97 100 18 40 52 94 26 5 3 7 5 78 100 100 100 100 100 100 100 100 100 93 93 100 100 100 100 100 100 100 100 100
5 4 2 100 100 100 100 100 100 100 100 66 100 100 100 26 5 68 76 5 0 4 5 49 75 100 100 100 100 100 100 100 100 100 100 100 100 100 100 100 100 100 100 100
13 5 5 100 100 100 100 100 100 100 100 100 100 99 98 59 85 52 5 2 5 2 43 79 80 59 100 100 100 100 100 89 91 90 83 100 100 100 100 100 100 100 100 100
40 5 5 100 100 100 100 100 100 100 100 100 100 100 100 93 67 5 3 11 6 15 98 17 5 15 42 100 100 100 100 95 91 76 86 100 100 100 100 100 100 100 100 100
40 11 14 100 100 100 100 100 100 100 100 100 100 100 95 85 92 48 3 5 8 76 100 72 87 80 7 93 100 100 100 83 77 100 95 100 100 100 100 100 100 100 100 100
99 27 16 100 100 100 100 100 100 100 100 100 100 100 99 100 74 5 5 5 5 5 79 95 86 87 100 100 100 99 82 89 47 42 81 99 100 100 100 100 100 100 100 100
90 56 86 100 100 100 100 100 100 100 100 100 100 100 100 89 20 7 5 5 5 10 98 51 96 20 21 8 93 63 86 96 38 28 57 100 100 100 100 100 100 100 100 100
100 88 100 100 100 100 100 100 100 100 100 100 100 100 99 73 58 8 5 5 5 14 23 17 5 26 8 30 100 100 100 87 45 37 89 97 100 100 100 100 100 100 100 100
100 100 100 100 100 100 100 100 100 100 100 100 100 100 100 100 100 76 13 5 54 5 5 5 5 6 7 96 100 100 100 100 70 84 100 100 100 100 100 100 100 100 100 100
100 100 100 100 100 100 100 94 100 100 100 100 100 100 100 98 99 18 5 5 58 72 70 6 5 8 42 100 100 100 100 99 98 100 100 100 100 100 100 100 100 100 100 100
100 100 100 100 100 100 100 100 100 100 100 100 100 100 100 62 96 75 14 9 96 86 51 26 15 50 100 100 100 100 100 100 100 100 100 100 100 100 100 100 100 100 100 100
100 100 100 100 100 100 100 100 100 100 100 100 100 100 100 100 93 26 34 7 45 5 5 5 5 99 100 100 100 100 100 100 100 100 100 100 100 100 100 100 100 99 100 83
100 100 100 100 100 100 100 100 100 100 100 100 100 99 100 100 60 22 5 7 5 9 0 4 12 100 100 100 100 100 100 100 100 100 100 100 100 100 100 100 98 76 100 100
100 100 100 100 100 100 100 100 100 100 100 100 100 100 100 63 8 9 16 61 5 5 4 5 47 100 100 100 100 100 100 100 100 100 100 100 100 99 100 98 100 100 100 100
100 100 100 100 100 100 100 100 100 100 100 94 100 100 79 66 49 14 5 17 5 5 5 13 100 100 100 100 100 100 100 100 100 100 100 100 100 94 100 90 94 100 91 20
100 100 100 100 100 100 100 100 100 100 99 63 99 45 78 92 9 9 26 97 12 5 88 100 100 100 100 100 100 100 100 100 100 100 100 98 100 84 89 100 100 100 78 99
100 100 100 100 100 100 100 26 89 85 100 100 100 100 100 95 5 38 76 34 5 99 100 100 100 100 100 100 100 100 100 100 100 92 76 98 100 100 100 100 100 100 84 5
100 100 87 94 100 100 100 25 100 100 100 100 100 14 5 5 25 5 12 58 27 50 100 100 100 100 100 100 100 100 100 100 100 99 99 100 100 100 100 100 78 7 5 14
99 29 100 100 100 100 100 100 100 100 100 100 45 6 5 19 5 40 78 100 95 81 95 100 100 100 100 100 100 100 100 100 100 100 100 100 100 95 66 48 6 46 18 5
98 100 100 100 100 100 100 100 100 100 100 67 5 42 22 18 7 82 87 42 93 100 100 100 100 100 100 100 100 100 100 100 100 100 100 100 58 84 99 43 79 16 5 5

GFSNW_prec_cloud_315.txt.gz
Cloud_Cover
2 0 0 18 100 100 100 100 100 100 100 100 64 6 1 5 2 0 2 93 100 100 100 100 100 100 100 100 100 100 100 100 100 100 100 100 100 100 100 100 100 100 100 100
2 0 0 3 100 100 100 100 100 100 100 100 80 5 5 43 0 3 0 7 100 100 100 100 100 100 100 100 100 100 100 100 100 100 100 100 100 100 100 100 100 100 100 100
1 0 0 0 100 100 100 100 100 100 100 100 95 16 5 52 5 1 1 5 80 100 100 100 100 100 100 100 100 100 100 100 100 100 100 100 100 100 100 100 100 100 100 100
4 0 0 0 100 100 100 100 100 100 99 100 100 90 5 51 9 0 2 5 5 21 100 100 100 100 100 100 100 100 100 100 100 100 100 100 100 100 100 100 100 100 100 100
1 0 5 0 100 100 100 100 100 100 98 100 100 100 0 5 5 4 3 5 62 38 31 100 100 100 100 100 100 100 100 100 100 100 100 100 100 100 100 100 100 100 100 100
5 0 0 0 73 100 100 100 100 98 100 100 62 18 5 3 5 5 37 5 5 5 16 27 100 100 100 82 99 100 94 100 100 100 100 100 100 100 100 100 100 100 100 100
7 0 0 0 3 100 100 100 100 96 100 82 51 100 74 52 54 36 93 5 5 5 7 69 5 88 100 100 100 90 6 84 100 100 100 100 100 100 100 100 100 100 100 100
67 0 0 0 0 100 100 100 100 100 100 99 100 100 39 94 100 100 62 5 5 5 5 5 12 15 15 100 100 100 73 92 90 50 83 80 100 100 100 100 100 100 100 100
6 0 0 0 0 100 100 100 100 100 100 63 100 100 100 100 92 100 97 44 5 5 5 6 5 5 5 5 57 100 100 100 100 87 5 5 98 100 100 100 100 100 100 100
5 0 4 5 0 100 100 100 100 100 100 100 100 100 100 100 100 100 13 8 5 5 65 44 1 5 5 4 8 36 100 100 100 100 69 10 59 100 90 58 92 100 100 100
5 0 4 5 5 84 100 100 100 100 100 100 100 100 100 100 100 48 9 29 10 31 6 4 2 5 5 5 5 6 9 62 34 14 15 38 74 97 65 78 100 100 100 100
4 2 5 95 53 100 100 100 100 100 100 100 100 100 100 100 100 69 25 99 59 8 16 23 5 5 5 5 5 5 8 11 5 38 100 100 84 8 17 91 100 100 100 100
0 5 11 100 100 84 100 100 100 100 100 100 100 100 100 100 100 95 97 5 5 5 30 62 74 24 5 5 34 5 6 67 22 5 51 10 5 5 5 12 84 100 100 100
0 5 75 94 100 100 100 100 100 100 100 100 100 100 100 100 100 99 38 22 94 53 90 54 42 5 5 5 7 11 5 22 5 5 5 10 5 5 8 100 100 100 100 100
4 5 91 84 76 100 100 100 100 100 100 100 100 100 100 100 100 100 100 95 95 54 5 19 5 5 5 5 21 9 5 8 15 97 100 75 40 54 100 100 92 100 100 100
84 95 70 97 100 100 100 100 100 100 100 100 100 100 100 100 100 100 100 91 95 6 5 5 5 5 5 4 0 5 5 46 87 100 96 69 90 98 100 100 100 100 100 100
100 100 94 74 100 100 100 100 100 100 100 100 100 100 100 100 100 100 100 97 48 5 5 5 34 11 5 4 4 5 5 90 95 100 100 84 100 100 100 100 100 100 100 100
100 100 100 100 100 100 100 100 100 100 100 100 100 100 100 100 100 98 100 96 14 8 6 11 53 7 5 5 5 5 11 99 100 100 96 100 93 100 100 100 100 100 100 100
100 100 100 100 100 100 100 100 100 100 100 100 100 100 100 100 100 100 98 72 98 75 29 5 16 26 5 2 5 6 98 100 100 100 100 98 97 100 100 100 100 100 100 100
100 100 100 100 100 100 100 100 100 100 100 100 100 100 100 100 98 100 74 100 99 78 6 5 54 12 5 5 5 28 100 100 100 100 94 100 100 100 100 100 100 100 100 100
100 100 100 100 100 100 100 100 100 100 100 100 100 100 100 99 100 100 100 89 60 5 18 14 89 26 5 10 5 5 99 100 100 100 100 100 100 100 100 100 100 100 100 98
100 100 100 100 100 100 100 100 100 100 100 100 100 100 100 100 100 100 68 100 77 5 13 43 75 5 6 7 6 61 100 100 100 100 100 100 100 100 100 100 100 100 100 100
100 100 100 100 100 100 100 100 100 100 99 100 100 100 100 100 100 52 93 72 10 22 72 8 65 5 89 91 48 100 100 100 100 100 100 100 100 100 100 100 100 100 100 100
100 100 100 100 100 64 6 8 100 100 100 100 100 100 100 99 98 97 74 14 5 6 96 80 52 5 98 100 100 100 100 100 100 100 100 100 100 100 100 100 98 100 100 100
100 100 87 97 4 2 60 96 99 100 100 100 100 100 100 100 96 50 12 8 20 99 75 48 64 12 42 100 100 100 100 100 100 100 100 100 100 100 100 100 100 100 100 100
96 57 24 5 6 22 16 90 100 100 100 100 100 100 100 80 81 44 15 76 100 42 42 100 25 10 56 100 100 100 100 100 100 100 100 100 100 100 100 100 100 100 100 100
93 96 43 7 98 51 97 100 100 100 100 100 100 100 100 16 11 56 93 100 84 99 98 56 10 5 70 100 100 100 100 100 100 100 100 100 100 100 100 100 100 100 28 5